Weather History for EGHE - November, 2012

Change the Weather History Date:

Thursday, November 29, 2012

  Actual Average Record
Temperature  
Mean Temperature 46 °F -  
Max Temperature 48 °F 48 °F - ()
Min Temperature 44 °F 46 °F - ()
Degree Days  
Heating Degree Days 19    
Moisture  
Dew Point 35 °F    
Average Humidity 65    
Maximum Humidity 76    
Minimum Humidity 53    
Precipitation  
Precipitation 0.02 in - - ()
Sea Level Pressure  
Sea Level Pressure 29.99 in    
Wind  
Wind Speed 8 mph ()    
Max Wind Speed 15 mph    
Max Gust Speed -    
Visibility 6.2 miles    
Events Rain    
T = Trace of Precipitation, MM = Missing Value Source: Averaged Metar Reports

Daily Weather History Graph

Daily Weather History Graph

Search for Another Location

Airport or City:

Trip Planner

Search our weather history database for the weather conditions in past years. The results will help you decide how hot, cold, wet, or windy it might be!

Date:

Astronomy

Nov. 29, 2012 Rise Set
Actual Time 7:59 AM GMT 4:27 PM GMT
Civil Twilight 7:22 AM GMT 5:04 PM GMT
Nautical Twilight 6:41 AM GMT 5:45 PM GMT
Astronomical Twilight 6:02 AM GMT 6:24 PM GMT
Moon 5:18 PM GMT (11/29) 8:35 AM GMT (11/29)
Length of Visible Light 9h 42m
Length of Day
8h 28m
Full, 99% of the Moon is Illuminated
Nov 29
Full
Dec 6
Last Quarter
Dec 13
New
Dec 20
First Quarter
Dec 28
Full

Hourly Weather History & Observations

Time (GMT) Temp. Windchill Dew Point Humidity Pressure Visibility Wind Dir Wind Speed Gust Speed Precip Events Conditions
2:50 AM 45 °F - 34 °F 54% 30.09 in 31 mi North 15.0 mph - -   Mostly Cloudy
5:50 AM 45 °F - 34 °F 56% 30.07 in 31 mi NNW 13.8 mph - -   Partly Cloudy
7:50 AM 44.6 °F 38.8 °F 33.8 °F 66% 30.04 in 6.2 mi NNW 11.5 mph - N/A   Partly Cloudy
8:20 AM 44.6 °F 39.7 °F 33.8 °F 66% 30.04 in 6.2 mi NNW 9.2 mph - N/A   Partly Cloudy
8:50 AM 45 °F - 35 °F 57% 30.05 in 31 mi NNW 9.2 mph - -  
8:50 AM 44.6 °F 39.7 °F 35.6 °F 71% 30.04 in 6.2 mi NNW 9.2 mph - N/A   Partly Cloudy
9:20 AM 44.6 °F 40.2 °F 33.8 °F 66% 30.04 in 6.2 mi NNW 8.1 mph - N/A   Scattered Clouds
9:50 AM 44.6 °F 40.2 °F 33.8 °F 66% 30.04 in 6.2 mi NNW 8.1 mph - N/A   Scattered Clouds
10:20 AM 46.4 °F 41.9 °F 33.8 °F 62% 30.04 in 6.2 mi NNW 9.2 mph - N/A   Scattered Clouds
10:50 AM 46.4 °F 42.4 °F 33.8 °F 62% 30.04 in 6.2 mi NNW 8.1 mph - N/A   Scattered Clouds
11:20 AM 46.4 °F 43.5 °F 35.6 °F 66% 30.01 in 6.2 mi NNW 5.8 mph - N/A   Scattered Clouds
11:50 AM 46 °F - 35 °F 53% 30.01 in 28 mi NNW 8.1 mph - -   Scattered Clouds
11:50 AM 46.4 °F 42.9 °F 35.6 °F 66% 30.01 in 6.2 mi NNW 6.9 mph - N/A   Scattered Clouds
1:50 PM 46.4 °F 44.3 °F 35.6 °F 66% 29.95 in 6.2 mi NNW 4.6 mph - N/A   Scattered Clouds
2:20 PM 46.4 °F 44.3 °F 35.6 °F 66% 29.95 in 6.2 mi NNW 4.6 mph - N/A   Scattered Clouds
2:50 PM 46.4 °F 43.5 °F 35.6 °F 66% 29.95 in 6.2 mi NW 5.8 mph - N/A   Scattered Clouds
3:20 PM 44.6 °F 41.4 °F 35.6 °F 71% 29.92 in 6.2 mi NNW 5.8 mph - N/A   Scattered Clouds
3:50 PM 44.6 °F 42.2 °F 35.6 °F 71% 29.92 in 6.2 mi North 4.6 mph - N/A   Partly Cloudy
4:20 PM 44.6 °F 42.2 °F 35.6 °F 71% 29.92 in 6.2 mi NNW 4.6 mph - N/A   Partly Cloudy
4:50 PM 44.6 °F 42.2 °F 33.8 °F 66% 29.92 in 6.2 mi North 4.6 mph - N/A   Partly Cloudy
5:50 PM 44 °F - 35 °F 59% 29.91 in 28 mi North 3.5 mph - -   Overcast
8:50 PM 45 °F - 39 °F 72% 29.89 in 31 mi ENE 3.5 mph - - Rain Rain
11:50 PM 44 °F - 39 °F 76% 29.89 in 31 mi NNW 2.3 mph - - Rain Light Rain